STARLINK-35850

Last updated on Sun Dec 07 2025 00:02:05 GMT+0000 (Coordinated Universal Time)

1 66352U 25254E 25340.58335648 -.00129595 00000+0 -23568-2 0 9994 2 66352 53.1603 306.0240 0001466 92.1340 325.8406 15.49356972 5883
UTC large
Height (km)
Speed (km/s)
/
Latitude / Longitude
Inclination (degrees)
Orbital Period (minutes)
Azimuth
Elevation
Range (km)
Doppler Factor

Next 0 passes for location: London (51.5072 / 0.1276)

Sorry there are no passes over London.